Regional Weather Roundup
Issued by NWS

Home | Current Version | Previous Version | Text Only | Print | Product List | Glossary Off
Versions: 1 2 3 4 5 6 7 8 9 10 11 12 13 14 15 16 17 18 19 20 21 22 23 24 25 26 27 28 29 30 31 32 33 34 35 36 37 38 39 40 41 42 43 44 45 46 47 48 49 50

000
ASUS45 KBOU 280810
RWRCO

WEATHER ROUNDUP FOR COLORADO
NATIONAL WEATHER SERVICE PUEBLO CO
200 AM MDT TUE JUL 28 2015

NOTE: "FAIR" INDICATES FEW OR NO CLOUDS BELOW 12000 FEET WITH NO
SIGNIFICANT WEATHER AND/OR OBSTRUCTIONS TO VISIBILITY.

COZ001>005-013-030-031-280900-
...NORTHWEST COLORADO...

CITY           SKY/WX    TMP DP  RH WIND       PRES   REMARKS
CRAIG          CLEAR     49  33  54 CALM      30.23S
HAYDEN         CLEAR     54  28  37 W5        30.23S
MEEKER         CLEAR     58  32  37 E9        30.22S
MOUNT WERNER   NOT AVBL
STEAMBOAT SPGS FAIR      51  34  52 CALM      30.24S
WALDEN         FAIR      45  28  53 CALM      30.28S
$$

COZ006>008-011-280900-
...WEST CENTRAL VALLEYS...

CITY           SKY/WX    TMP DP  RH WIND       PRES   REMARKS
GRAND JUNCTION CLEAR     65  33  30 E5        30.04R
MONTROSE       CLEAR     62  35  36 VRB3      30.11R
EAGLE          CLEAR     55  36  47 NE3       30.20R
RIFLE          CLEAR     67  34  29 NW7       30.12R
DELTA          NOT AVBL
NUCLA          FAIR      63  30  29 E8        30.14R
$$

COZ017>023-064>068-280900-
...SOUTHWEST COLORADO...

CITY           SKY/WX    TMP DP  RH WIND       PRES   REMARKS
DURANGO        CLEAR     56  36  47 CALM      30.16S
CORTEZ         CLEAR     53  38  56 E7        30.12S
PAGOSA SPRINGS FAIR      51  40  64 CALM      30.25F
TELLURIDE      CLEAR     54  32  43 SE6       30.38S
WOLF CREEK PAS NOT AVBL
$$

COZ009-010-012-014-032>034-037-058>063-280900-
...CENTRAL COLORADO...

CITY           SKY/WX    TMP DP  RH WIND       PRES   REMARKS
ASPEN          CLEAR     50  37  61 S6        30.25R
BUENA VISTA    FAIR      52  28  39 CALM      30.23S
COPPER MTN     CLEAR     54  21  28 W14G23    30.53F
BERTHOUD PASS  FAIR      37  30  75 W29G36    30.52F
COTTONWOOD PAS CLEAR     63  16  16 CALM      30.37S
GUNNISON       NOT AVBL
KREMMLING      CLEAR     55  28  35 N6        30.26S
LEADVILLE      CLEAR     44  27  51 E6        30.37F
MONARCH PASS   CLEAR     48  25  40 W32G44    30.61F
SALIDA         FAIR      61  30  30 SW7       30.27S
NIWOT RIDGE    NOT AVBL
SUNLIGHT       CLEAR     50  30  46 W6        30.47F
WILKERSON PASS CLEAR     52  21  30 SW14G24   30.48R
$$

COZ069>075-280900-
...SAN LUIS VALLEY/SANGRE DE CRISTO MOUNTAINS...

CITY           SKY/WX    TMP DP  RH WIND       PRES   REMARKS
ALAMOSA        CLEAR     49  41  74 SE6       30.22S
LA VETA PASS   PTCLDY    54  36  50 MISG      30.40S
SAGUACHE       CLEAR     54  37  54 N3        30.25S
$$

COZ035-036-038>040-280900-
...NORTHERN COLORADO FRONT RANGE...

CITY           SKY/WX    TMP DP  RH WIND       PRES   REMARKS
DENVER INTL AP CLEAR     63  40  42 NE10      30.00R
DMNS CITY PARK NOT AVBL
AURORA         PTCLDY    65  38  37 SE7       30.03R
FRONT RANGE AP NOT AVBL
ERIE MUNI ARPT FAIR      68  37  32 CALM      29.97R
BOULDER MUN AP FAIR      64  39  39 NE8       29.98R
CENTENNIAL     CLEAR     68  34  28 SW7       30.01R
BROOMFIELD     CLEAR     70  37  30 NE10G16   30.02R
LOVELAND       CLEAR     70  37  30 N12       29.96R
LONGMONT       FAIR      64  44  47 CALM      29.98R
$$

COZ041-046-047-076>085-087-088-280900-
...PIKES PEAK/PALMER DIVIDE AND SOUTHERN FOOTHILLS...

CITY           SKY/WX    TMP DP  RH WIND       PRES   REMARKS
COLO. SPRINGS  PTCLDY    76  29  17 NW13      30.04F
A. F. ACADEMY  CLEAR     74  24  15 W6        30.07S
ELLICOTT       FAIR     N/A N/A N/A N6        30.03R
FALCON         FAIR      69  29  23 NW10      30.11S
FORT CARSON    CLEAR     66  39  37 SE3       30.00S
LIMON          CLEAR     64  50  60 N10       30.00R
MONUMENT HILL  CLEAR     63  32  31 SW9       30.12S
TRINIDAD       PTCLDY    64  47  53 NW8       30.04S
$$

COZ042>045-048>051-090-091-280900-
...NORTHEAST COLORADO...

CITY           SKY/WX    TMP DP  RH WIND       PRES   REMARKS
GREELEY ARPT   CLEAR     66  37  34 N7        29.96S
AKRON            N/A    N/A N/A N/A MISG      29.94R
BURLINGTON     PTCLDY    71  61  70 SW9       29.87R
WRAY           FAIR      68  58  70 W8        29.82R
STERLING       NOT AVBL
HOLYOKE        FAIR      77  59  53 NW21G29   29.84R
FORT MORGAN    FAIR      70  34  27 N21G31    29.96R
$$

COZ086-089-092>099-280900-
...SOUTHEAST COLORADO...

CITY           SKY/WX    TMP DP  RH WIND       PRES   REMARKS
PUEBLO         CLEAR     69  42  37 W8        29.92R
LA JUNTA       PTCLDY    76  54  46 SW14      29.88R
LAMAR          PTCLDY    82  57  42 SW17      29.82S
SPRINGFIELD      N/A     73  59  61 SW16G24   29.94F
$$




USA.gov is the U.S. government's official web portal to all federal, state and local government web resources and services.